Flight Track Log - Related Links

Times and Time Zones

All times are in EDT time to prevent confusion due to time zone crossing. See the N287MC flight status page for this flight to view local times or setup timezone preferences in your user account.

Time Position Orientation Groundspeed Altitude Reporting Facility
EDT Latitude Longitude Course Direction KTS MPH feet Rate Location/Type
Tue 05:10:29 PM 32.3114 -95.3564 203° Southwest 270 311 5,000  Level Fort Worth Center
Tue 05:11:31 PM 32.2394 -95.3925 203° Southwest 277 319 8,700 3,468 Climbing Fort Worth Center
Tue 05:13:03 PM 32.1197 -95.4506 202° Southwest 287 330 13,900 3,024 Climbing Houston Center
Tue 05:13:36 PM 32.0886 -95.4672 204° Southwest 297 342 15,000 1,263 Climbing Fort Worth Center
Tue 05:14:38 PM 32.0019 -95.5100 203° Southwest 332 382 15,900 435 Climbing Fort Worth Center
Tue 05:15:40 PM 31.8786 -95.5683 202° Southwest 391 450 15,900 48 Level Fort Worth Center
Tue 05:16:42 PM 31.7789 -95.6158 202° Southwest 391 450 16,000 48 Climbing Fort Worth Center
Tue 05:17:44 PM 31.6747 -95.6650 202° Southwest 386 444 16,000  Level Fort Worth Center
Tue 05:18:46 PM 31.5758 -95.7111 202° Southwest 384 442 16,000  Level Fort Worth Center
Tue 05:19:16 PM 31.5217 -95.7353 201° Southwest 384 442 16,000  Level Houston Center
Tue 05:20:18 PM 31.4197 -95.7842 202° Southwest 391 450 16,000  Level Houston Center
Tue 05:21:20 PM 31.3167 -95.8319 202° Southwest 395 455 16,000  Level Houston Center
Tue 05:22:22 PM 31.2147 -95.8797 202° Southwest 395 455 16,000  Level Houston Center
Tue 05:23:24 PM 31.1131 -95.9275 202° Southwest 395 455 16,000  Level Houston Center
Tue 05:24:27 PM 30.9928 -95.9844 202° Southwest 394 453 16,000  Level Houston Center
Tue 05:25:07 PM 30.9278 -96.0144 202° Southwest 389 448 16,000 -97 Level Houston Center
Tue 05:25:29 PM 30.8925 -96.0308 202° Southwest 393 452 15,900 -806 Descending Houston Center
Tue 05:26:14 PM 30.8169 -96.0661 202° Southwest 385 443 15,100 -1,065 Descending Houston Center
Tue 05:26:31 PM 30.7950 -96.0767 202° Southwest 383 441 14,800 -1,355 Descending Houston Center
Tue 05:27:16 PM 30.7181 -96.1139 203° Southwest 357 411 13,700 -1,258 Descending Houston Center
Tue 05:27:33 PM 30.7028 -96.1192 197° South 365 420 13,500 -1,377 Descending Houston Center
Tue 05:28:17 PM 30.6253 -96.1558 202° Southwest 352 405 12,300 -1,452 Descending Houston Center
Tue 05:28:35 PM 30.6003 -96.1664 200° South 351 404 12,000 -1,161 Descending Houston Center
Tue 05:29:19 PM 30.5386 -96.1972 203° Southwest 350 403 11,100 -1,258 Descending Houston Center
Tue 05:29:37 PM 30.5103 -96.2094 200° South 350 403 10,700 -1,377 Descending Houston Center
Tue 05:30:20 PM 30.4478 -96.2389 202° Southwest 319 367 9,700 -1,355 Descending Houston Center
Tue 05:30:39 PM 30.4281 -96.2431 190° South 322 371 9,300 -750 Descending Houston Center
Tue 05:31:16 PM 30.3717 -96.2331 171° South 288 331 9,000 -286 Descending Houston Center
Tue 05:31:42 PM 30.3467 -96.2283 171° South 293 337 9,000  Level Houston Center
Tue 05:32:17 PM 30.2908 -96.2203 173° South 297 342 9,000  Level Houston Center
Tue 05:32:44 PM 30.2644 -96.2153 171° South 293 337 9,000 -581 Level Houston Center
Tue 05:33:19 PM 30.2056 -96.2058 172° South 298 343 8,400 -871 Descending Houston Center
Tue 05:33:46 PM 30.1828 -96.2017 171° South 298 343 8,100 -1,180 Descending Houston Center
Tue 05:34:20 PM 30.1250 -96.1931 173° South 273 314 7,200 -1,452 Descending Houston Center
Tue 05:34:48 PM 30.0928 -96.1872 171° South 275 316 6,600 -1,161 Descending Houston Center
Tue 05:35:22 PM 30.0525 -96.1819 174° South 267 307 6,000 -1,258 Descending Houston Center
Tue 05:35:50 PM 30.0194 -96.1758 171° South 271 312 5,300 -1,377 Descending Houston Center
Tue 05:36:23 PM 29.9783 -96.1711 174° South 266 306 4,600 -1,258 Descending Houston Center
Tue 05:36:52 PM 29.9475 -96.1636 168° South 265 305 4,000 -1,254 Descending Houston Center
Tue 05:37:30 PM 29.9114 -96.1256 138° Southeast 254 292 3,200 -952 Descending Houston Center
Tue 05:37:55 PM 29.9006 -96.1044 121° Southeast 255 293 3,000 -214 Descending Houston Center
Tue 05:38:26 PM 29.8767 -96.0644 125° Southeast 243 280 3,000  Level Houston Center
Tue 05:38:57 PM 29.8608 -96.0417 129° Southeast 247 284 3,000  Level Houston Center
Tue 05:39:27 PM 29.8361 -96.0064 129° Southeast 231 266 3,000 -290 Level Houston Center
Tue 05:39:59 PM 29.8192 -95.9756 122° Southeast 229 264 2,700 -581 Descending Houston Center
Tue 05:40:29 PM 29.7992 -95.9456 128° Southeast 221 254 2,400 -581 Descending Houston Center
Tue 05:41:01 PM 29.7836 -95.9197 125° Southeast 222 255 2,100 -393 Descending Houston Center
Tue 05:41:30 PM 29.7653 -95.8919 127° Southeast 207 238 2,000 -95 Descending Houston Center
Tue 05:42:04 PM 29.7497 -95.8667 125° Southeast 212 244 2,000  Level Houston Center
Tue 05:42:32 PM 29.7314 -95.8403 129° Southeast 194 223 2,000  Level Houston Center
Tue 05:43:06 PM 29.7167 -95.8144 123° Southeast 198 228 2,000  Level Houston Center
Tue 05:43:33 PM 29.6992 -95.7864 126° Southeast 196 226 2,000  Level Houston Center
Tue 05:44:08 PM 29.6858 -95.7667 128° Southeast 198 228 2,000 -197 Level Houston Center
Tue 05:44:34 PM 29.6656 -95.7375 129° Southeast 194 223 1,800 -387 Descending Houston Center
Tue 05:45:10 PM 29.6481 -95.7072 124° Southeast 197 227 1,600 -194 Descending Houston Center
Tue 05:45:36 PM 29.6267 -95.7011 166° South 186 214 1,600 -194 Level Houston Center
Tue 05:46:12 PM 29.5964 -95.6972 174° South 196 226 1,400 -393 Descending Houston Center
Tue 05:46:37 PM 29.5756 -95.6928 169° South 160 184 1,200 -387 Descending Houston Center
Tue 05:47:14 PM 29.5728 -95.6689 98° East 173 199 1,000 -387 Descending Houston Center
Tue 05:47:39 PM 29.5828 -95.6558 49° Northeast 138 159 800 -571 Descending Houston Center
Tue 05:48:17 PM 29.6000 -95.6544 North 144 166 400 -632 Descending Houston Center
Tue 05:50:00 PM 29.6167 -95.6500 131° Southeast  Level FlightAware Approximate

Login

Don't have an account? Register now (free) for customized features, flight alerts, and more!